• In Hungary
  • List of Countries
  • For 7 days
  • Water Temperature
  • Satellite Maps
  • Weather Map
  • News
  • Weather Widgets
  • user-avatar
    Login

    Hourly Weather Sternberk

    Today, 12 December, Tuesday

    Time Temperature Precipitation Wind Pressure Humidity
    00:00 +8°C° 0 mm 11 mps 716 mmHg 79%
    01:00 +8°C° 0 mm 10 mps 717 mmHg 79%
    02:00 +8°C° 0 mm 10 mps 717 mmHg 80%
    03:00 +7°C° 0 mm 10 mps 718 mmHg 81%
    04:00 +7°C° 0 mm 9 mps 718 mmHg 81%
    05:00 +7°C° 0.1 mm 8 mps 719 mmHg 82%
    06:00 +6°C° 0.1 mm 7 mps 720 mmHg 83%
    07:00 +5°C° 0.1 mm 6 mps 721 mmHg 85%
    08:00 +5°C° 0 mm 6 mps 722 mmHg 81%
    09:00 +5°C° 0 mm 6 mps 723 mmHg 78%
    10:00 +5°C° 0 mm 6 mps 724 mmHg 74%
    11:00 +5°C° 0 mm 6 mps 725 mmHg 71%
    12:00 +5°C° 0 mm 6 mps 726 mmHg 68%
    13:00 +5°C° 0 mm 6 mps 727 mmHg 65%
    14:00 +4°C° 0 mm 6 mps 728 mmHg 66%
    15:00 +3°C° 0 mm 5 mps 729 mmHg 67%
    16:00 +2°C° 0 mm 5 mps 730 mmHg 68%
    17:00 +2°C° 0 mm 5 mps 731 mmHg 69%
    18:00 +2°C° 0 mm 5 mps 732 mmHg 69%
    19:00 +1°C° 0 mm 4 mps 732 mmHg 70%
    20:00 +1°C° 0 mm 4 mps 733 mmHg 70%
    21:00 +1°C° 0 mm 4 mps 733 mmHg 71%
    22:00 0°C° 0 mm 4 mps 734 mmHg 72%
    23:00 +1°C° 0 mm 3 mps 734 mmHg 74%

    Tomorrow, 13 December, Wednesday

    Time Temperature Precipitation Wind Pressure Humidity
    00:00 +1°C° 0 mm 3 mps 735 mmHg 75%
    01:00 0°C° 0 mm 3 mps 735 mmHg 77%
    02:00 0°C° 0 mm 3 mps 735 mmHg 79%
    03:00 +1°C° 0 mm 2 mps 736 mmHg 81%
    04:00 -1°C° 0 mm 2 mps 736 mmHg 82%
    05:00 -1°C° 0 mm 2 mps 736 mmHg 83%
    06:00 -1°C° 0 mm 2 mps 736 mmHg 84%
    07:00 -1°C° 0 mm 2 mps 736 mmHg 85%
    08:00 -1°C° 0 mm 2 mps 736 mmHg 81%
    09:00 +1°C° 0 mm 2 mps 737 mmHg 78%
    10:00 0°C° 0 mm 3 mps 737 mmHg 74%
    11:00 +1°C° 0 mm 3 mps 736 mmHg 72%
    12:00 +1°C° 0 mm 3 mps 735 mmHg 69%
    13:00 +1°C° 0 mm 3 mps 735 mmHg 66%
    14:00 +1°C° 0 mm 3 mps 734 mmHg 70%
    15:00 0°C° 0 mm 3 mps 734 mmHg 74%
    16:00 -1°C° 0 mm 3 mps 733 mmHg 78%
    17:00 -1°C° 0 mm 3 mps 733 mmHg 78%
    18:00 -2°C° 0 mm 4 mps 732 mmHg 79%
    19:00 -2°C° 0 mm 4 mps 732 mmHg 79%
    20:00 -2°C° 0 mm 5 mps 731 mmHg 79%
    21:00 -2°C° 0 mm 5 mps 730 mmHg 80%
    22:00 -3°C° 0 mm 6 mps 730 mmHg 80%
    23:00 -3°C° 0 mm 6 mps 729 mmHg 81%

    Day after tomorrow, 14 December, Thursday

    Time Temperature Precipitation Wind Pressure Humidity
    00:00 -3°C° 0 mm 6 mps 728 mmHg 81%
    01:00 -3°C° 0 mm 6 mps 727 mmHg 81%
    02:00 -3°C° 0 mm 6 mps 727 mmHg 82%
    03:00 -3°C° 0 mm 6 mps 726 mmHg 83%
    04:00 -3°C° 0 mm 6 mps 725 mmHg 84%
    05:00 -2°C° 0.3 mm 6 mps 725 mmHg 85%
    06:00 -2°C° 0.3 mm 6 mps 725 mmHg 86%
    07:00 -2°C° 0.3 mm 6 mps 725 mmHg 87%
    08:00 -1°C° 0.2 mm 7 mps 725 mmHg 87%
    09:00 -1°C° 0.2 mm 7 mps 725 mmHg 86%
    10:00 -1°C° 0.2 mm 7 mps 725 mmHg 86%
    11:00 +1°C° 0.1 mm 6 mps 725 mmHg 84%
    12:00 +1°C° 0.1 mm 6 mps 726 mmHg 82%
    13:00 +2°C° 0.1 mm 5 mps 726 mmHg 80%
    14:00 +1°C° 0 mm 4 mps 726 mmHg 82%
    15:00 +1°C° 0 mm 4 mps 725 mmHg 84%
    16:00 +1°C° 0 mm 3 mps 725 mmHg 85%
    17:00 +1°C° 0 mm 3 mps 725 mmHg 87%
    18:00 0°C° 0 mm 4 mps 725 mmHg 89%
    19:00 0°C° 0 mm 4 mps 725 mmHg 91%
    20:00 0°C° 0 mm 4 mps 724 mmHg 91%
    21:00 0°C° 0 mm 5 mps 723 mmHg 91%
    22:00 0°C° 0 mm 5 mps 723 mmHg 91%
    23:00 0°C° 0.1 mm 5 mps 722 mmHg 90%

    15 December, Friday

    Time Temperature Precipitation Wind Pressure Humidity
    00:00 -1°C° 0.1 mm 6 mps 721 mmHg 90%
    01:00 -1°C° 0.1 mm 7 mps 720 mmHg 89%
    02:00 0°C° 0.3 mm 7 mps 720 mmHg 88%
    03:00 0°C° 0.3 mm 7 mps 719 mmHg 86%
    04:00 0°C° 0.3 mm 7 mps 719 mmHg 85%
    05:00 0°C° 0.2 mm 7 mps 720 mmHg 83%
    06:00 +1°C° 0.2 mm 6 mps 720 mmHg 80%
    07:00 -1°C° 0.2 mm 6 mps 721 mmHg 78%
    08:00 -1°C° 0 mm 6 mps 722 mmHg 76%
    09:00 -1°C° 0 mm 6 mps 722 mmHg 74%
    10:00 -1°C° 0 mm 6 mps 723 mmHg 73%
    11:00 0°C° 0 mm 5 mps 723 mmHg 72%
    12:00 0°C° 0 mm 5 mps 723 mmHg 71%
    13:00 +1°C° 0 mm 4 mps 723 mmHg 70%
    14:00 +1°C° 0 mm 3 mps 723 mmHg 73%
    15:00 +1°C° 0 mm 2 mps 723 mmHg 75%
    16:00 -1°C° 0 mm 2 mps 723 mmHg 78%
    17:00 -1°C° 0 mm 2 mps 723 mmHg 79%
    18:00 -1°C° 0 mm 2 mps 723 mmHg 79%
    19:00 +1°C° 0 mm 1 mps 723 mmHg 80%
    20:00 +1°C° 0 mm 1 mps 723 mmHg 79%
    21:00 +1°C° 0 mm 1 mps 723 mmHg 78%
    22:00 +1°C° 0 mm 1 mps 723 mmHg 77%
    23:00 +1°C° 0 mm 1 mps 723 mmHg 77%

    16 December, Saturday

    Time Temperature Precipitation Wind Pressure Humidity
    00:00 +1°C° 0 mm 1 mps 723 mmHg 76%
    01:00 +1°C° 0 mm 1 mps 723 mmHg 76%
    02:00 0°C° 0 mm 0 mps 723 mmHg 77%
    03:00 0°C° 0 mm 0 mps 723 mmHg 78%
    04:00 0°C° 0 mm 0 mps 723 mmHg 78%
    05:00 0°C° 0 mm 0 mps 723 mmHg 79%
    06:00 0°C° 0 mm 0 mps 724 mmHg 79%
    07:00 0°C° 0 mm 0 mps 724 mmHg 80%
    08:00 +1°C° 0 mm 1 mps 724 mmHg 78%
    09:00 +2°C° 0 mm 1 mps 725 mmHg 77%
    10:00 +2°C° 0 mm 1 mps 725 mmHg 75%
    11:00 +3°C° 0 mm 1 mps 725 mmHg 75%
    12:00 +2°C° 0 mm 2 mps 725 mmHg 74%
    13:00 +3°C° 0 mm 2 mps 725 mmHg 74%
    14:00 +2°C° 0 mm 2 mps 726 mmHg 79%
    15:00 +1°C° 0 mm 2 mps 726 mmHg 83%
    16:00 -1°C° 0 mm 2 mps 726 mmHg 88%
    17:00 -1°C° 0 mm 2 mps 727 mmHg 89%
    18:00 -1°C° 0 mm 2 mps 727 mmHg 89%
    19:00 -1°C° 0 mm 2 mps 728 mmHg 90%
    20:00 -1°C° 0 mm 2 mps 728 mmHg 91%
    21:00 -2°C° 0 mm 2 mps 729 mmHg 91%
    22:00 -2°C° 0 mm 2 mps 729 mmHg 91%
    23:00 -2°C° 0 mm 2 mps 730 mmHg 91%

    17 December, Sunday

    Time Temperature Precipitation Wind Pressure Humidity
    00:00 -2°C° 0 mm 2 mps 730 mmHg 92%
    01:00 -2°C° 0 mm 2 mps 730 mmHg 92%
    02:00 -2°C° 0 mm 2 mps 730 mmHg 92%
    03:00 -2°C° 0 mm 2 mps 730 mmHg 91%
    04:00 -2°C° 0 mm 2 mps 730 mmHg 91%
    05:00 -3°C° 0 mm 2 mps 730 mmHg 91%
    06:00 -3°C° 0 mm 2 mps 730 mmHg 91%
    07:00 -3°C° 0 mm 2 mps 730 mmHg 92%
    08:00 -2°C° 0 mm 2 mps 731 mmHg 89%
    09:00 -1°C° 0 mm 3 mps 731 mmHg 86%
    10:00 -1°C° 0 mm 3 mps 731 mmHg 83%
    11:00 0°C° 0.1 mm 3 mps 731 mmHg 81%
    12:00 0°C° 0.1 mm 3 mps 731 mmHg 78%
    13:00 +1°C° 0.1 mm 3 mps 731 mmHg 76%
    14:00 0°C° 0.1 mm 3 mps 731 mmHg 79%
    15:00 -1°C° 0.1 mm 2 mps 731 mmHg 83%
    16:00 -1°C° 0.1 mm 2 mps 731 mmHg 86%
    17:00 -1°C° 0.2 mm 2 mps 731 mmHg 87%
    18:00 -1°C° 0.2 mm 2 mps 732 mmHg 88%
    19:00 -1°C° 0.2 mm 2 mps 732 mmHg 88%
    20:00 -2°C° 0.1 mm 2 mps 732 mmHg 89%
    21:00 -2°C° 0.1 mm 2 mps 732 mmHg 91%
    22:00 -3°C° 0.1 mm 2 mps 732 mmHg 92%
    23:00 -3°C° 0.1 mm 2 mps 733 mmHg 92%
    Show more